Location: Aranbee
(34.0885°N, 118.2342°W)
Time: 18:34:57
(UTC+00:00)

S-56A Canister/Altair - Pass Details

Date: 03 August 2021
Orbit: 632 x 2500 km, 38.9° (Epoch: 16 September)

Event Time Altitude Azimuth Distance (km) Brightness Sun altitude
Rises 06:46:56 0° 281° (WNW) 5,911 12.4 -35.7°
Reaches altitude 10° 06:54:49 10° 255° (WSW) 4,502 11.4 -36.3°
Maximum altitude 06:58:20 12° 238° (WSW) 4,133 11.1 -36.5°
Enters shadow 06:58:52 12° 235° (SW) 4,099 11.0 -36.5°
